Location: Bucksport
(44.6167°N, 68.8000°W)
Time: 23:42:58
(UTC-05:00)

N. Korean satellite - Pass Details

Date: 25 October 2019
Orbit: 456 x 506 km, 97.2° (Epoch: 12 November)

Event Time Altitude Azimuth Distance (km) Brightness Sun altitude
Rises 18:41:46 0° 209° (SSW) 2,467 10.7 -12.5°
Reaches altitude 10° 18:44:36 10° 236° (SW) 1,606 10.2 -13.0°
Maximum altitude 18:46:27 14° 269° (W) 1,392 10.2 -13.4°
Drops below altitude 10° 18:48:20 10° 302° (WNW) 1,624 10.1 -13.7°
Sets 18:51:14 0° 329° (NNW) 2,518 10.6 -14.2°
